| time (UTC) | temp F | wind direction | speed knots | gust knots | rain 1hr in | rain 24hr in | rain mn in | humidity % | barometer mb |
| 20260503213100 | 80 | 268 | 0.0 | 1.7 | 0.00 | 0.00 | 0.00 | 37 | 1011.3 |
| 20260503211607 | 79 | 315 | 0.9 | 2.6 | 0.00 | 0.00 | 0.00 | 38 | 1011.5 |
| 20260503210049 | 79 | 261 | 0.9 | 1.7 | 0.00 | 0.00 | 0.00 | 40 | 1011.7 |
| 20260503204545 | 79 | 261 | 0.9 | 2.6 | 0.00 | 0.00 | 0.00 | 41 | 1012.0 |
| 20260503203049 | 79 | 248 | 0.9 | 3.5 | 0.00 | 0.00 | 0.00 | 40 | 1012.1 |
| 20260503201542 | 81 | 267 | 0.0 | 2.6 | 0.00 | 0.00 | 0.00 | 38 | 1012.4 |
| 20260503200053 | 78 | 269 | 0.9 | 5.2 | 0.00 | 0.00 | 0.00 | 40 | 1012.5 |
| 20260503194534 | 78 | 309 | 0.9 | 5.2 | 0.00 | 0.00 | 0.00 | 43 | 1012.8 |
| 20260503193035 | 73 | 210 | 3.5 | 7.0 | 0.00 | 0.00 | 0.00 | 50 | 1012.9 |
| 20260503191528 | 73 | 252 | 3.5 | 6.1 | 0.00 | 0.00 | 0.00 | 50 | 1012.9 |
| 20260503190030 | 76 | 237 | 0.9 | 3.5 | 0.00 | 0.00 | 0.00 | 44 | 1013.0 |
| 20260503184528 | 75 | 263 | 0.9 | 3.5 | 0.00 | 0.00 | 0.00 | 45 | 1013.1 |
| 20260503183019 | 75 | 288 | 0.9 | 3.5 | 0.00 | 0.00 | 0.00 | 45 | 1013.4 |
| 20260503181515 | 73 | 272 | 0.9 | 2.6 | 0.00 | 0.00 | 0.00 | 53 | 1013.4 |
| 20260503180012 | 72 | 286 | 0.9 | 2.6 | 0.00 | 0.00 | 0.00 | 53 | 1013.5 |
| 20260503174514 | 70 | 286 | 0.9 | 1.7 | 0.00 | 0.00 | 0.00 | 55 | 1013.6 |
| 20260503173004 | 67 | 280 | 0.0 | 1.7 | 0.00 | 0.00 | 0.00 | 60 | 1013.7 |
| 20260503171559 | 64 | 279 | 0.9 | 1.7 | 0.00 | 0.00 | 0.00 | 64 | 1013.7 |
| 20260503081505 | 59 | 35 | 0.0 | 0.0 | 0.00 | 0.03 | 0.00 | 73 | 1013.5 |
| 20260503080107 | 59 | 35 | 0.0 | 0.0 | 0.00 | 0.03 | 0.00 | 73 | 1013.5 |
| 20260503071602 | 60 | 94 | 0.0 | 0.0 | 0.00 | 0.03 | 0.00 | 68 | 1013.5 |
| 20260503054550 | 61 | 344 | 0.9 | 2.6 | 0.00 | 0.03 | 0.03 | 66 | 1013.2 |
| 20260503053049 | 61 | 331 | 0.9 | 2.6 | 0.00 | 0.03 | 0.03 | 66 | 1013.2 |
| 20260503051549 | 61 | 286 | 0.0 | 0.0 | 0.00 | 0.03 | 0.03 | 65 | 1013.3 |
| 20260503050048 | 61 | 286 | 0.0 | 0.0 | 0.00 | 0.03 | 0.03 | 65 | 1013.2 |
| 20260503044552 | 62 | 286 | 0.0 | 0.0 | 0.00 | 0.03 | 0.03 | 63 | 1013.3 |
| 20260503043052 | 62 | 286 | 0.0 | 0.0 | 0.00 | 0.03 | 0.03 | 62 | 1013.1 |
| 20260503041547 | 63 | 286 | 0.0 | 0.0 | 0.00 | 0.03 | 0.03 | 61 | 1013.0 |
| 20260503040049 | 64 | 286 | 0.0 | 0.0 | 0.00 | 0.03 | 0.03 | 64 | 1012.9 |
| 20260503034552 | 65 | 286 | 0.0 | 0.0 | 0.00 | 0.03 | 0.03 | 63 | 1012.7 |
| 20260503033045 | 65 | 286 | 0.0 | 0.0 | 0.00 | 0.03 | 0.03 | 59 | 1012.5 |
| 20260503031545 | 66 | 286 | 0.0 | 0.0 | 0.00 | 0.03 | 0.03 | 58 | 1012.3 |
| 20260503030104 | 67 | 286 | 0.0 | 0.0 | 0.00 | 0.03 | 0.03 | 59 | 1012.2 |
| 20260503024543 | 68 | 286 | 0.0 | 0.0 | 0.00 | 0.03 | 0.03 | 57 | 1012.2 |
| 20260503023044 | 69 | 286 | 0.0 | 0.0 | 0.00 | 0.03 | 0.03 | 57 | 1012.2 |
| 20260503021542 | 70 | 286 | 0.0 | 0.0 | 0.00 | 0.03 | 0.03 | 58 | 1012.3 |
| 20260503020040 | 70 | 286 | 0.0 | 0.0 | 0.00 | 0.03 | 0.03 | 56 | 1012.5 |
| 20260503014552 | 70 | 286 | 0.0 | 0.0 | 0.00 | 0.03 | 0.03 | 55 | 1012.7 |
| 20260503013038 | 71 | 273 | 0.0 | 1.7 | 0.00 | 0.03 | 0.03 | 51 | 1012.7 |
| 20260503011547 | 72 | 261 | 0.0 | 1.7 | 0.00 | 0.03 | 0.03 | 52 | 1012.7 |
| 20260503010035 | 72 | 261 | 0.0 | 1.7 | 0.00 | 0.03 | 0.03 | 52 | 1012.8 |
| 20260503004536 | 73 | 232 | 1.7 | 3.5 | 0.00 | 0.03 | 0.03 | 48 | 1013.0 |
| 20260503003032 | 75 | 359 | 0.0 | 1.7 | 0.00 | 0.03 | 0.03 | 44 | 1013.1 |
| 20260503001530 | 79 | 359 | 0.9 | 1.7 | 0.00 | 0.03 | 0.03 | 39 | 1013.2 |
| 20260503000032 | 78 | 5 | 0.9 | 3.5 | 0.00 | 0.03 | 0.03 | 40 | 1013.3 |
| 20260502234526 | 78 | 300 | 0.9 | 2.6 | 0.00 | 0.03 | 0.03 | 39 | 1013.6 |
| 20260502233026 | 76 | 282 | 0.9 | 2.6 | 0.00 | 0.03 | 0.03 | 42 | 1013.6 |
| 20260502231524 | 78 | 298 | 0.9 | 2.6 | 0.00 | 0.03 | 0.03 | 46 | 1013.8 |
| 20260502230021 | 80 | 261 | 0.0 | 1.7 | 0.00 | 0.03 | 0.03 | 43 | 1013.9 |
| 20260502224522 | 81 | 248 | 0.0 | 2.6 | 0.00 | 0.03 | 0.03 | 40 | 1014.1 |
| 20260502223018 | 79 | 265 | 0.0 | 1.7 | 0.00 | 0.03 | 0.03 | 42 | 1014.3 |
| 20260502221517 | 78 | 278 | 0.9 | 2.6 | 0.00 | 0.03 | 0.03 | 47 | 1014.5 |
| 20260502220015 | 79 | 259 | 0.0 | 0.9 | 0.00 | 0.03 | 0.03 | 42 | 1014.6 |
| 20260502214515 | 78 | 254 | 0.9 | 3.5 | 0.00 | 0.03 | 0.03 | 41 | 1014.8 |